• In India
  • List of Countries
  • For 7 days
  • Water Temperature
  • Satellite Maps
  • Weather Map
  • Weather Widgets
  • user-avatar
    Login

    Hourly Weather Chachagui

    Today, 11 December, Monday

    Time Temperature Precipitation Wind Pressure Humidity
    00:00 +15°C° 0.6 mm 1 mps 605 mmHg 93%
    01:00 +15°C° 0.6 mm 1 mps 605 mmHg 93%
    02:00 +15°C° 0.4 mm 1 mps 604 mmHg 93%
    03:00 +15°C° 0.4 mm 1 mps 604 mmHg 92%
    04:00 +14°C° 0.4 mm 1 mps 604 mmHg 92%
    05:00 +15°C° 0.2 mm 1 mps 604 mmHg 90%
    06:00 +15°C° 0.2 mm 1 mps 605 mmHg 88%
    07:00 +16°C° 0.2 mm 1 mps 605 mmHg 86%
    08:00 +19°C° 0.1 mm 1 mps 606 mmHg 78%
    09:00 +21°C° 0.1 mm 1 mps 606 mmHg 70%
    10:00 +23°C° 0.1 mm 1 mps 607 mmHg 62%
    11:00 +21°C° 0.4 mm 2 mps 607 mmHg 66%
    12:00 +21°C° 0.4 mm 2 mps 606 mmHg 70%
    13:00 +21°C° 0.4 mm 2 mps 605 mmHg 73%
    14:00 +20°C° 0.9 mm 2 mps 605 mmHg 77%
    15:00 +20°C° 0.9 mm 2 mps 604 mmHg 80%
    16:00 +19°C° 0.9 mm 2 mps 604 mmHg 84%
    17:00 +18°C° 1.1 mm 2 mps 604 mmHg 87%
    18:00 +18°C° 1.1 mm 1 mps 604 mmHg 91%
    19:00 +16°C° 1.1 mm 1 mps 604 mmHg 94%
    20:00 +16°C° 0.7 mm 1 mps 604 mmHg 94%
    21:00 +15°C° 0.7 mm 1 mps 604 mmHg 94%
    22:00 +15°C° 0.7 mm 1 mps 605 mmHg 94%
    23:00 +15°C° 0.4 mm 1 mps 605 mmHg 94%

    Tomorrow, 12 December, Tuesday

    Time Temperature Precipitation Wind Pressure Humidity
    00:00 +15°C° 0.4 mm 1 mps 604 mmHg 93%
    01:00 +15°C° 0.4 mm 1 mps 604 mmHg 93%
    02:00 +15°C° 0.2 mm 1 mps 604 mmHg 92%
    03:00 +15°C° 0.2 mm 1 mps 604 mmHg 91%
    04:00 +14°C° 0.2 mm 1 mps 604 mmHg 90%
    05:00 +15°C° 0.1 mm 1 mps 604 mmHg 89%
    06:00 +15°C° 0.1 mm 1 mps 604 mmHg 88%
    07:00 +15°C° 0.1 mm 1 mps 605 mmHg 87%
    08:00 +18°C° 0 mm 1 mps 606 mmHg 80%
    09:00 +19°C° 0 mm 1 mps 606 mmHg 73%
    10:00 +21°C° 0 mm 1 mps 607 mmHg 66%
    11:00 +20°C° 0.3 mm 2 mps 607 mmHg 67%
    12:00 +21°C° 0.3 mm 2 mps 606 mmHg 68%
    13:00 +21°C° 0.3 mm 2 mps 606 mmHg 69%
    14:00 +20°C° 0.6 mm 2 mps 605 mmHg 73%
    15:00 +20°C° 0.6 mm 2 mps 604 mmHg 76%
    16:00 +19°C° 0.6 mm 2 mps 604 mmHg 80%
    17:00 +18°C° 0.9 mm 2 mps 604 mmHg 85%
    18:00 +18°C° 0.9 mm 1 mps 604 mmHg 89%
    19:00 +16°C° 0.9 mm 1 mps 604 mmHg 94%
    20:00 +15°C° 0.6 mm 1 mps 604 mmHg 94%
    21:00 +15°C° 0.6 mm 1 mps 605 mmHg 94%
    22:00 +15°C° 0.6 mm 1 mps 605 mmHg 94%
    23:00 +14°C° 0.1 mm 1 mps 605 mmHg 94%

    Day after tomorrow, 13 December, Wednesday

    Time Temperature Precipitation Wind Pressure Humidity
    00:00 +14°C° 0.1 mm 1 mps 605 mmHg 93%
    01:00 +14°C° 0.1 mm 1 mps 604 mmHg 93%
    02:00 +14°C° 0.1 mm 1 mps 604 mmHg 92%
    03:00 +14°C° 0.1 mm 1 mps 604 mmHg 91%
    04:00 +14°C° 0.1 mm 1 mps 604 mmHg 90%
    05:00 +14°C° 0 mm 1 mps 604 mmHg 88%
    06:00 +14°C° 0 mm 1 mps 605 mmHg 86%
    07:00 +15°C° 0 mm 1 mps 605 mmHg 84%
    08:00 +18°C° 0 mm 1 mps 606 mmHg 73%
    09:00 +20°C° 0 mm 1 mps 607 mmHg 62%
    10:00 +21°C° 0 mm 2 mps 608 mmHg 52%
    11:00 +23°C° 0.1 mm 2 mps 608 mmHg 52%
    12:00 +23°C° 0.1 mm 2 mps 607 mmHg 52%
    13:00 +24°C° 0.1 mm 2 mps 607 mmHg 52%
    14:00 +23°C° 0.2 mm 2 mps 606 mmHg 54%
    15:00 +23°C° 0.2 mm 2 mps 606 mmHg 57%
    16:00 +21°C° 0.2 mm 2 mps 605 mmHg 60%
    17:00 +20°C° 0.1 mm 1 mps 605 mmHg 69%
    18:00 +18°C° 0.1 mm 1 mps 604 mmHg 78%
    19:00 +14°C° 0.1 mm 0 mps 604 mmHg 87%
    20:00 +15°C° 0 mm 1 mps 604 mmHg 86%
    21:00 +14°C° 0 mm 1 mps 604 mmHg 85%
    22:00 +14°C° 0 mm 1 mps 605 mmHg 83%
    23:00 +14°C° 0 mm 1 mps 605 mmHg 84%

    14 December, Thursday

    Time Temperature Precipitation Wind Pressure Humidity
    00:00 +15°C° 0 mm 1 mps 604 mmHg 84%
    01:00 +15°C° 0 mm 1 mps 604 mmHg 85%
    02:00 +15°C° 0 mm 1 mps 604 mmHg 86%
    03:00 +14°C° 0 mm 1 mps 604 mmHg 87%
    04:00 +14°C° 0 mm 1 mps 603 mmHg 89%
    05:00 +15°C° 0 mm 1 mps 604 mmHg 87%
    06:00 +15°C° 0 mm 1 mps 604 mmHg 85%
    07:00 +16°C° 0 mm 1 mps 605 mmHg 84%
    08:00 +18°C° 0 mm 1 mps 606 mmHg 77%
    09:00 +19°C° 0 mm 2 mps 607 mmHg 71%
    10:00 +21°C° 0 mm 2 mps 607 mmHg 65%
    11:00 +21°C° 0 mm 2 mps 607 mmHg 63%
    12:00 +23°C° 0 mm 2 mps 607 mmHg 62%
    13:00 +24°C° 0 mm 2 mps 606 mmHg 60%
    14:00 +23°C° 0.3 mm 2 mps 605 mmHg 65%
    15:00 +21°C° 0.3 mm 2 mps 605 mmHg 71%
    16:00 +20°C° 0.3 mm 2 mps 604 mmHg 76%
    17:00 +20°C° 0.4 mm 1 mps 604 mmHg 82%
    18:00 +18°C° 0.4 mm 1 mps 604 mmHg 88%
    19:00 +16°C° 0.4 mm 1 mps 604 mmHg 94%
    20:00 +16°C° 0.2 mm 1 mps 604 mmHg 94%
    21:00 +16°C° 0.2 mm 1 mps 605 mmHg 94%
    22:00 +16°C° 0.2 mm 1 mps 605 mmHg 94%
    23:00 +15°C° 0.1 mm 1 mps 605 mmHg 93%

    15 December, Friday

    Time Temperature Precipitation Wind Pressure Humidity
    00:00 +15°C° 0.1 mm 1 mps 604 mmHg 92%
    01:00 +14°C° 0.1 mm 1 mps 604 mmHg 91%
    02:00 +14°C° 0 mm 1 mps 604 mmHg 90%
    03:00 +14°C° 0 mm 1 mps 603 mmHg 89%
    04:00 +14°C° 0 mm 1 mps 603 mmHg 88%
    05:00 +14°C° 0 mm 1 mps 604 mmHg 86%
    06:00 +15°C° 0 mm 1 mps 604 mmHg 85%
    07:00 +15°C° 0 mm 1 mps 605 mmHg 83%
    08:00 +18°C° 0 mm 2 mps 606 mmHg 73%
    09:00 +20°C° 0 mm 2 mps 607 mmHg 63%
    10:00 +23°C° 0 mm 2 mps 608 mmHg 52%
    11:00 +22°C° 0 mm 3 mps 607 mmHg 51%
    12:00 +24°C° 0 mm 3 mps 607 mmHg 49%
    13:00 +25°C° 0 mm 3 mps 607 mmHg 47%
    14:00 +24°C° 0.1 mm 3 mps 606 mmHg 51%
    15:00 +23°C° 0.1 mm 2 mps 605 mmHg 54%
    16:00 +21°C° 0.1 mm 2 mps 604 mmHg 58%
    17:00 +19°C° 0.1 mm 2 mps 604 mmHg 68%
    18:00 +18°C° 0.1 mm 1 mps 604 mmHg 77%
    19:00 +15°C° 0.1 mm 1 mps 604 mmHg 86%
    20:00 +15°C° 0.1 mm 1 mps 604 mmHg 85%
    21:00 +15°C° 0.1 mm 1 mps 604 mmHg 83%
    22:00 +15°C° 0.1 mm 1 mps 605 mmHg 82%
    23:00 +15°C° 0 mm 1 mps 605 mmHg 80%

    16 December, Saturday

    Time Temperature Precipitation Wind Pressure Humidity
    00:00 +15°C° 0 mm 1 mps 604 mmHg 79%
    01:00 +15°C° 0 mm 1 mps 604 mmHg 77%
    02:00 +14°C° 0.1 mm 1 mps 604 mmHg 77%
    03:00 +14°C° 0.1 mm 1 mps 603 mmHg 77%
    04:00 +14°C° 0.1 mm 1 mps 603 mmHg 77%
    05:00 +14°C° 0.2 mm 1 mps 604 mmHg 77%
    06:00 +15°C° 0.2 mm 1 mps 604 mmHg 76%
    07:00 +15°C° 0.2 mm 1 mps 605 mmHg 76%
    08:00 +18°C° 0.1 mm 1 mps 606 mmHg 70%
    09:00 +20°C° 0.1 mm 1 mps 606 mmHg 64%
    10:00 +21°C° 0.1 mm 2 mps 607 mmHg 59%
    11:00 +23°C° 0 mm 2 mps 607 mmHg 58%
    12:00 +23°C° 0 mm 2 mps 606 mmHg 57%
    13:00 +24°C° 0 mm 2 mps 606 mmHg 56%
    14:00 +23°C° 0.3 mm 2 mps 605 mmHg 60%
    15:00 +21°C° 0.3 mm 2 mps 605 mmHg 64%
    16:00 +20°C° 0.3 mm 2 mps 604 mmHg 69%
    17:00 +19°C° 0.3 mm 2 mps 604 mmHg 76%
    18:00 +19°C° 0.3 mm 1 mps 603 mmHg 83%
    19:00 +16°C° 0.3 mm 1 mps 603 mmHg 90%
    20:00 +16°C° 0.2 mm 1 mps 604 mmHg 90%
    21:00 +16°C° 0.2 mm 1 mps 604 mmHg 89%
    22:00 +15°C° 0.2 mm 1 mps 604 mmHg 89%
    23:00 +15°C° 0 mm 1 mps 604 mmHg 88%
    Show more